Location: Rounton
(54.4000°N, 1.3500°W)
Time: 21:32:20
(UTC+00:00)

Vanguard 3 - Pass Details

Date: 07 December 2021
Orbit: 508 x 3260 km, 33.3° (Epoch: 17 January)

Event Time Altitude Azimuth Distance (km) Brightness Sun altitude
Rises 07:07:43 0° 263° (W) 7,229 11.5 -8.6°
Reaches altitude 10° 07:13:47 10° 254° (WSW) 6,119 11.2 -7.8°
Maximum altitude 07:27:43 28° 207° (SSW) 4,173 10.8 -6.1°
Drops below altitude 10° 07:38:17 10° 156° (SSE) 4,557 12.0 -4.8°
Sets 07:41:59 0° 144° (SE) 5,164 12.9 -4.3°
